Regional Weather Roundup
Issued by NWS

Home | Current Version | Previous Version | Text Only | Print | Product List | Glossary Off
Versions: 1 2 3 4 5 6 7 8 9 10 11 12 13 14 15 16 17 18 19 20 21 22 23 24 25 26 27 28 29 30 31 32 33 34 35 36 37 38 39 40 41 42 43 44 45 46 47 48 49 50

000
ASUS43 KLSX 052207
RWRMO

WEATHER SUMMARY FOR MISSOURI
NATIONAL WEATHER SERVICE SPRINGFIELD MO
400 PM CST MON DEC 05 2016

NOTE: "FAIR" INDICATES FEW OR NO CLOUDS BELOW 12,000 FEET WITH NO
       SIGNIFICANT WEATHER AND/OR OBSTRUCTIONS TO VISIBILITY.
       CURRENT SKY AND/OR WEATHER CONDITIONS ARE NOT AVAILABLE FOR
       CHILLICOTHE AND FARMINGTON.

MOZ001>031-035>038-043-044-053-054-052300-
...NORTHERN AND WESTERN MISSOURI...

CITY           SKY/WX    TMP DP  RH WIND       PRES   REMARKS
KANSAS CTY INT CLEAR     50  32  50 SE13      29.74R
KANSAS C DTWN  CLEAR     52  35  52 S5        29.74F
LEE`S SUMMIT   CLOUDY    50  35  56 SE12      29.75F
ST JOSEPH      CLEAR     51  35  54 S8        29.74S
CHILLICOTHE      N/A     50  37  61 SE9       29.79F
KIRKSVILLE     CLOUDY    40  39  97 E6        29.83F FOG

$$
MOZ066>068-077>081-088>096-101>105-052300-
...SOUTHWEST MISSOURI...

CITY           SKY/WX    TMP DP  RH WIND       PRES   REMARKS
SPRINGFIELD    PTCLDY    45  36  70 SE12      29.76F
JOPLIN         PTCLDY    46  38  73 SE9       29.76F
BRANSON        MOCLDY   N/A N/A N/A E8        29.79F

$$
MOZ032>034-039>042-045>050-055>058-069>072-052300-
...CENTRAL MISSOURI...

CITY           SKY/WX    TMP DP  RH WIND       PRES   REMARKS
COLUMBIA       CLOUDY    45  37  73 E7        29.82F
JEFFERSON CITY PTCLDY    47  38  71 E6        29.83F
ROLLA          PTCLDY    45  34  65 SE7       29.82F
SEDALIA        PTCLDY    47  33  58 SE10      29.81R
WHITEMAN AFB   MOCLDY    49  35  59 S9        29.77F
WARRENSBURG    PTCLDY    48  36  61 SE12      29.77F
OSAGE BEACH    CLOUDY    46  35  65 SE6       29.82F

$$
MOZ051-052-059>065-052300-
...EAST CENTRAL MISSOURI...

CITY           SKY/WX    TMP DP  RH WIND       PRES   REMARKS
ST LOUIS INTL  MOCLDY    44  34  67 E10       29.89F
SPIRIT OF STL  PTCLDY    45  37  73 E6        29.87F
ST CHARLES     PTCLDY    43  38  82 E14       29.89F

$$
MOZ072>076-082>087-097>100-106>115-052300-
...SOUTH CENTRAL AND SOUTHEAST MISSOURI...

CITY           SKY/WX    TMP DP  RH WIND       PRES   REMARKS
CAPE GIRARDEAU MOCLDY    43  35  73 E12       29.90F
FARMINGTON     CLEAR     43  33  68 SE6       29.87F
POPLAR BLUFF   CLOUDY    43  38  82 E7        29.89F
WEST PLAINS    CLOUDY    44  35  70 SE9       29.84S

$$



USA.gov is the U.S. government's official web portal to all federal, state and local government web resources and services.